This is the latest recevied weather packets stored in our database for station/object CE2LOH-10. If no packets are shown the sender has not sent any weather packets the latest 10 day(s).
| Time | Temp. | Humidity | Pressure | Rain* | Wind** | Luminosity | Snow |
|---|---|---|---|---|---|---|---|
| 1778278177 | 18.89° C | 40% | 995.3 hPa | - | - | - | - |
| 1778277277 | 19.44° C | 39% | 995.4 hPa | - | - | - | - |
| 1778276377 | 20° C | 38% | 995.2 hPa | - | - | - | - |
| 1778275477 | 20° C | 38% | 995.1 hPa | - | - | - | - |
| 1778274577 | 20.56° C | 37% | 995.1 hPa | - | - | - | - |
| 1778273676 | 20.56° C | 36% | 995 hPa | - | - | - | - |
| 1778272776 | 20.56° C | 37% | 995.1 hPa | - | - | - | - |
| 1778271876 | 20.56° C | 36% | 995.2 hPa | - | - | - | - |
| 1778270976 | 20.56° C | 36% | 995.1 hPa | - | - | - | - |
| 1778270076 | 21.11° C | 36% | 995.2 hPa | - | - | - | - |
| 1778269176 | 20.56° C | 37% | 995.1 hPa | - | - | - | - |
| 1778268276 | 20.56° C | 38% | 995.2 hPa | - | - | - | - |
| 1778267375 | 20.56° C | 38% | 995.3 hPa | - | - | - | - |
| 1778266475 | 20.56° C | 38% | 995.4 hPa | - | - | - | - |
| 1778265575 | 20° C | 40% | 995.5 hPa | - | - | - | - |
| 1778264675 | 20° C | 41% | 995.6 hPa | - | - | - | - |
| 1778263775 | 20° C | 42% | 995.7 hPa | - | - | - | - |
| 1778262875 | 19.44° C | 42% | 995.8 hPa | - | - | - | - |
| 1778261975 | 19.44° C | 42% | 996.1 hPa | - | - | - | - |
| 1778261074 | 18.89° C | 44% | 996.1 hPa | - | - | - | - |
| 1778260174 | 18.89° C | 44% | 996.1 hPa | - | - | - | - |
| 1778259274 | 18.33° C | 45% | 996.4 hPa | - | - | - | - |
| 1778258374 | 17.78° C | 48% | 996.6 hPa | - | - | - | - |
| 1778257474 | 17.78° C | 49% | 996.9 hPa | - | - | - | - |
| 1778256574 | 17.22° C | 50% | 997.1 hPa | - | - | - | - |
* Rain since midnight (hover to see other rain measurements)
** Current wind speed in m/s (hover to see current wind gust speed)